| time (UTC) | temp C | wind direction | speed KPH | gust KPH | rain 1hr cm | rain 24hr cm | rain mn cm | humidity % | barometer mb |
| 20260510155022 | 12 | 38 | 9.7 | 14.5 | 0.00 | 0.10 | 0.10 | 78 | 1018.3 |
| 20260510154541 | 12 | 48 | 8.0 | 14.5 | 0.00 | 0.10 | 0.10 | 77 | 1018.5 |
| 20260510154026 | 12 | 36 | 8.0 | 14.5 | 0.00 | 0.10 | 0.10 | 77 | 1018.6 |
| 20260510153522 | 12 | 24 | 9.7 | 16.1 | 0.00 | 0.10 | 0.10 | 77 | 1018.7 |
| 20260510153042 | 12 | 30 | 8.0 | 16.1 | 0.00 | 0.10 | 0.10 | 77 | 1018.7 |
| 20260510152522 | 12 | 41 | 9.7 | 14.5 | 0.00 | 0.10 | 0.10 | 77 | 1018.5 |
| 20260510152023 | 12 | 42 | 6.4 | 14.5 | 0.00 | 0.10 | 0.10 | 77 | 1018.5 |
| 20260510151538 | 12 | 44 | 9.7 | 16.1 | 0.00 | 0.10 | 0.10 | 77 | 1018.5 |
| 20260510151022 | 12 | 59 | 8.0 | 16.1 | 0.00 | 0.10 | 0.10 | 77 | 1018.6 |
| 20260510150523 | 12 | 47 | 8.0 | 22.5 | 0.00 | 0.10 | 0.10 | 77 | 1018.6 |
| 20260510150041 | 12 | 33 | 11.3 | 22.5 | 0.03 | 0.10 | 0.10 | 77 | 1018.8 |
| 20260510145521 | 11 | 17 | 14.5 | 22.5 | 0.03 | 0.10 | 0.10 | 79 | 1018.5 |
| 20260510145021 | 11 | 55 | 12.9 | 20.9 | 0.03 | 0.10 | 0.10 | 80 | 1018.5 |
| 20260510144545 | 11 | 26 | 12.9 | 19.3 | 0.03 | 0.10 | 0.10 | 81 | 1018.6 |
| 20260510144022 | 11 | 40 | 12.9 | 19.3 | 0.03 | 0.10 | 0.10 | 81 | 1018.5 |
| 20260510143522 | 11 | 30 | 8.0 | 19.3 | 0.03 | 0.10 | 0.10 | 81 | 1018.9 |
| 20260510143038 | 11 | 19 | 8.0 | 22.5 | 0.03 | 0.10 | 0.10 | 81 | 1018.8 |
| 20260510142520 | 11 | 34 | 14.5 | 22.5 | 0.05 | 0.10 | 0.10 | 81 | 1018.8 |
| 20260510142022 | 11 | 38 | 12.9 | 20.9 | 0.05 | 0.10 | 0.10 | 81 | 1018.9 |
| 20260510141538 | 12 | 26 | 11.3 | 20.9 | 0.05 | 0.10 | 0.10 | 81 | 1018.8 |
| 20260510141024 | 12 | 28 | 12.9 | 20.9 | 0.05 | 0.10 | 0.10 | 80 | 1018.7 |
| 20260510140523 | 12 | 22 | 8.0 | 14.5 | 0.08 | 0.10 | 0.10 | 79 | 1018.6 |
| 20260510140038 | 12 | 350 | 6.4 | 17.7 | 0.05 | 0.08 | 0.08 | 79 | 1018.7 |
| 20260510135522 | 12 | 26 | 9.7 | 17.7 | 0.05 | 0.08 | 0.08 | 77 | 1018.8 |
| 20260510135020 | 12 | 18 | 9.7 | 17.7 | 0.05 | 0.08 | 0.08 | 76 | 1018.8 |
| 20260510134537 | 12 | 5 | 8.0 | 16.1 | 0.08 | 0.08 | 0.08 | 76 | 1018.9 |
| 20260510134028 | 12 | 32 | 6.4 | 14.5 | 0.08 | 0.08 | 0.08 | 75 | 1018.7 |
| 20260510133520 | 12 | 13 | 4.8 | 14.5 | 0.08 | 0.08 | 0.08 | 74 | 1018.5 |
| 20260510133036 | 12 | 346 | 4.8 | 14.5 | 0.08 | 0.08 | 0.08 | 74 | 1018.5 |
| 20260510132523 | 13 | 334 | 4.8 | 16.1 | 0.05 | 0.05 | 0.05 | 73 | 1018.5 |
| 20260510132021 | 13 | 360 | 8.0 | 16.1 | 0.05 | 0.05 | 0.05 | 73 | 1018.5 |
| 20260510131543 | 13 | 5 | 4.8 | 8.0 | 0.05 | 0.05 | 0.05 | 73 | 1018.5 |
| 20260510131025 | 13 | 5 | 3.2 | 16.1 | 0.03 | 0.03 | 0.03 | 72 | 1018.3 |
| 20260510130523 | 13 | 9 | 4.8 | 17.7 | 0.03 | 0.03 | 0.03 | 71 | 1018.2 |
| 20260510130038 | 13 | 67 | 6.4 | 17.7 | 0.03 | 0.03 | 0.03 | 71 | 1017.9 |
| 20260510125524 | 13 | 94 | 9.7 | 22.5 | 0.03 | 0.03 | 0.03 | 70 | 1017.8 |
| 20260510125022 | 13 | 61 | 12.9 | 22.5 | 0.00 | 0.00 | 0.00 | 68 | 1017.7 |
| 20260510124537 | 13 | 58 | 11.3 | 22.5 | 0.00 | 0.00 | 0.00 | 68 | 1017.6 |
| 20260510124022 | 14 | 44 | 14.5 | 30.6 | 0.00 | 0.00 | 0.00 | 67 | 1017.4 |
| 20260510123523 | 14 | 45 | 14.5 | 30.6 | 0.00 | 0.00 | 0.00 | 65 | 1017.1 |
| 20260510123036 | 15 | 45 | 16.1 | 33.8 | 0.00 | 0.00 | 0.00 | 66 | 1016.6 |
| 20260510122521 | 15 | 65 | 17.7 | 33.8 | 0.00 | 0.00 | 0.00 | 62 | 1016.4 |
| 20260510122021 | 15 | 44 | 22.5 | 33.8 | 0.00 | 0.00 | 0.00 | 62 | 1016.1 |
| 20260510121537 | 15 | 40 | 19.3 | 30.6 | 0.00 | 0.00 | 0.00 | 63 | 1015.9 |
| 20260510121021 | 15 | 43 | 17.7 | 30.6 | 0.00 | 0.00 | 0.00 | 65 | 1015.6 |
| 20260510120524 | 15 | 47 | 14.5 | 29.0 | 0.00 | 0.00 | 0.00 | 65 | 1015.3 |
| 20260510120037 | 15 | 24 | 12.9 | 30.6 | 0.00 | 0.00 | 0.00 | 65 | 1015.1 |
| 20260510115520 | 15 | 28 | 11.3 | 30.6 | 0.00 | 0.00 | 0.00 | 66 | 1015.0 |
| 20260510115021 | 15 | 44 | 19.3 | 30.6 | 0.00 | 0.00 | 0.00 | 65 | 1014.9 |
| 20260510114539 | 15 | 25 | 20.9 | 30.6 | 0.00 | 0.00 | 0.00 | 66 | 1014.7 |
| 20260510114021 | 15 | 61 | 17.7 | 29.0 | 0.00 | 0.00 | 0.00 | 66 | 1014.6 |
| 20260510113520 | 15 | 63 | 14.5 | 30.6 | 0.00 | 0.00 | 0.00 | 66 | 1014.4 |
| 20260510113042 | 15 | 41 | 20.9 | 32.2 | 0.00 | 0.00 | 0.00 | 66 | 1014.1 |
| 20260510112524 | 15 | 51 | 20.9 | 32.2 | 0.00 | 0.00 | 0.00 | 66 | 1013.7 |
| 20260510112024 | 15 | 48 | 17.7 | 33.8 | 0.00 | 0.00 | 0.00 | 66 | 1013.6 |
| 20260510111536 | 15 | 63 | 19.3 | 33.8 | 0.00 | 0.00 | 0.00 | 66 | 1013.3 |
| 20260510111024 | 15 | 58 | 20.9 | 33.8 | 0.00 | 0.00 | 0.00 | 66 | 1013.3 |
| 20260510110520 | 15 | 45 | 22.5 | 37.0 | 0.00 | 0.00 | 0.00 | 66 | 1013.2 |
| 20260510110048 | 15 | 48 | 20.9 | 37.0 | 0.00 | 0.00 | 0.00 | 65 | 1013.0 |
| 20260510105522 | 15 | 55 | 22.5 | 35.4 | 0.00 | 0.00 | 0.00 | 65 | 1013.0 |
| 20260510105020 | 15 | 42 | 19.3 | 29.0 | 0.00 | 0.00 | 0.00 | 65 | 1013.1 |
| 20260510104537 | 15 | 60 | 17.7 | 29.0 | 0.00 | 0.00 | 0.00 | 65 | 1013.1 |
| 20260510104024 | 15 | 42 | 16.1 | 29.0 | 0.00 | 0.00 | 0.00 | 65 | 1013.0 |
| 20260510103521 | 15 | 39 | 17.7 | 27.4 | 0.00 | 0.00 | 0.00 | 65 | 1013.1 |
| 20260510103039 | 15 | 32 | 16.1 | 27.4 | 0.00 | 0.00 | 0.00 | 65 | 1013.0 |
| 20260510102524 | 15 | 10 | 14.5 | 25.7 | 0.00 | 0.00 | 0.00 | 66 | 1013.0 |
| 20260510102020 | 15 | 52 | 16.1 | 25.7 | 0.00 | 0.00 | 0.00 | 66 | 1012.8 |
| 20260510101543 | 15 | 41 | 14.5 | 22.5 | 0.00 | 0.00 | 0.00 | 66 | 1012.5 |
| 20260510101022 | 15 | 36 | 14.5 | 25.7 | 0.00 | 0.00 | 0.00 | 67 | 1012.5 |
| 20260510100522 | 15 | 38 | 16.1 | 29.0 | 0.00 | 0.00 | 0.00 | 67 | 1012.5 |
| 20260510100048 | 15 | 40 | 17.7 | 29.0 | 0.00 | 0.00 | 0.00 | 67 | 1012.6 |
| 20260510095521 | 15 | 44 | 17.7 | 29.0 | 0.00 | 0.00 | 0.00 | 68 | 1012.5 |
| 20260510095020 | 15 | 43 | 12.9 | 22.5 | 0.00 | 0.00 | 0.00 | 69 | 1012.2 |
| 20260510094544 | 15 | 53 | 12.9 | 20.9 | 0.00 | 0.00 | 0.00 | 70 | 1012.1 |
| 20260510094023 | 15 | 66 | 12.9 | 20.9 | 0.00 | 0.00 | 0.00 | 70 | 1012.2 |
| 20260510093524 | 15 | 42 | 14.5 | 20.9 | 0.00 | 0.00 | 0.00 | 71 | 1012.1 |
| 20260510093040 | 15 | 32 | 12.9 | 19.3 | 0.00 | 0.00 | 0.00 | 71 | 1012.0 |
| 20260510092523 | 15 | 57 | 11.3 | 19.3 | 0.00 | 0.00 | 0.00 | 70 | 1011.8 |
| 20260510092025 | 15 | 39 | 12.9 | 20.9 | 0.00 | 0.00 | 0.00 | 70 | 1011.9 |
| 20260510091538 | 15 | 34 | 12.9 | 24.1 | 0.00 | 0.00 | 0.00 | 69 | 1011.9 |
| 20260510091023 | 15 | 21 | 14.5 | 24.1 | 0.00 | 0.00 | 0.00 | 69 | 1011.8 |
| 20260510090524 | 15 | 20 | 16.1 | 24.1 | 0.00 | 0.00 | 0.00 | 69 | 1011.7 |
| 20260510090036 | 15 | 19 | 16.1 | 24.1 | 0.00 | 0.00 | 0.00 | 69 | 1011.7 |
| 20260510085521 | 16 | 13 | 11.3 | 20.9 | 0.00 | 0.00 | 0.00 | 68 | 1011.6 |
| 20260510085021 | 16 | 20 | 16.1 | 22.5 | 0.00 | 0.00 | 0.00 | 68 | 1011.5 |
| 20260510084542 | 16 | 19 | 14.5 | 22.5 | 0.00 | 0.00 | 0.00 | 67 | 1011.5 |
| 20260510084021 | 16 | 5 | 11.3 | 20.9 | 0.00 | 0.00 | 0.00 | 67 | 1011.7 |
| 20260510083523 | 16 | 360 | 11.3 | 19.3 | 0.00 | 0.00 | 0.00 | 67 | 1011.7 |
| 20260510083038 | 16 | 360 | 9.7 | 19.3 | 0.00 | 0.00 | 0.00 | 67 | 1011.7 |
| 20260510082520 | 16 | 9 | 12.9 | 19.3 | 0.00 | 0.00 | 0.00 | 67 | 1011.7 |
| 20260510082022 | 16 | 39 | 12.9 | 17.7 | 0.00 | 0.00 | 0.00 | 66 | 1011.4 |
| 20260510081541 | 16 | 34 | 11.3 | 17.7 | 0.00 | 0.00 | 0.00 | 65 | 1011.3 |
| 20260510081022 | 16 | 40 | 11.3 | 17.7 | 0.00 | 0.00 | 0.00 | 65 | 1011.2 |
| 20260510080523 | 16 | 50 | 9.7 | 17.7 | 0.00 | 0.00 | 0.00 | 65 | 1011.2 |
| 20260510080052 | 16 | 42 | 9.7 | 17.7 | 0.00 | 0.00 | 0.00 | 64 | 1011.1 |
| 20260510075526 | 17 | 44 | 9.7 | 17.7 | 0.00 | 0.00 | 0.00 | 64 | 1010.9 |
| 20260510075022 | 17 | 57 | 11.3 | 17.7 | 0.00 | 0.00 | 0.00 | 64 | 1011.0 |
| 20260510074539 | 17 | 51 | 8.0 | 17.7 | 0.00 | 0.00 | 0.00 | 63 | 1011.1 |
| 20260510074020 | 17 | 44 | 11.3 | 17.7 | 0.00 | 0.00 | 0.00 | 63 | 1011.0 |
| 20260510073521 | 17 | 53 | 11.3 | 19.3 | 0.00 | 0.00 | 0.00 | 62 | 1011.1 |
| 20260510073042 | 17 | 50 | 11.3 | 19.3 | 0.00 | 0.00 | 0.00 | 62 | 1011.2 |
| 20260510072521 | 17 | 53 | 12.9 | 19.3 | 0.00 | 0.00 | 0.00 | 61 | 1011.1 |
| 20260510072021 | 17 | 69 | 9.7 | 17.7 | 0.00 | 0.00 | 0.00 | 61 | 1011.1 |
| 20260510071539 | 17 | 86 | 12.9 | 19.3 | 0.00 | 0.00 | 0.00 | 62 | 1011.1 |
| 20260510071020 | 17 | 71 | 9.7 | 19.3 | 0.00 | 0.00 | 0.00 | 62 | 1010.9 |
| 20260510070521 | 17 | 59 | 11.3 | 17.7 | 0.00 | 0.00 | 0.00 | 62 | 1010.9 |
| 20260510070047 | 17 | 65 | 12.9 | 17.7 | 0.00 | 0.00 | 0.00 | 63 | 1010.9 |
| 20260510065523 | 17 | 65 | 11.3 | 17.7 | 0.00 | 0.00 | 0.00 | 63 | 1010.8 |
| 20260510065025 | 17 | 76 | 8.0 | 12.9 | 0.00 | 0.00 | 0.00 | 63 | 1011.0 |
| 20260510064544 | 17 | 56 | 8.0 | 14.5 | 0.00 | 0.00 | 0.00 | 62 | 1011.0 |
| 20260510064020 | 17 | 64 | 9.7 | 17.7 | 0.00 | 0.00 | 0.00 | 62 | 1010.9 |
| 20260510063522 | 17 | 52 | 8.0 | 17.7 | 0.00 | 0.00 | 0.00 | 62 | 1010.8 |
| 20260510063038 | 17 | 48 | 12.9 | 17.7 | 0.00 | 0.00 | 0.00 | 61 | 1010.8 |
| 20260510062522 | 17 | 30 | 9.7 | 17.7 | 0.00 | 0.00 | 0.00 | 60 | 1010.6 |
| 20260510062023 | 17 | 56 | 12.9 | 17.7 | 0.00 | 0.00 | 0.00 | 60 | 1010.2 |
| 20260510061537 | 18 | 59 | 8.0 | 12.9 | 0.00 | 0.00 | 0.00 | 59 | 1010.2 |
| 20260510061024 | 18 | 67 | 6.4 | 12.9 | 0.00 | 0.00 | 0.00 | 59 | 1010.2 |
| 20260510060523 | 18 | 66 | 8.0 | 14.5 | 0.00 | 0.00 | 0.00 | 58 | 1010.1 |
| 20260510060041 | 18 | 60 | 8.0 | 14.5 | 0.00 | 0.00 | 0.00 | 58 | 1010.1 |
| 20260510055530 | 18 | 41 | 8.0 | 19.3 | 0.00 | 0.00 | 0.00 | 58 | 1010.0 |
| 20260510055022 | 18 | 54 | 12.9 | 19.3 | 0.00 | 0.00 | 0.00 | 58 | 1009.8 |
| 20260510054539 | 18 | 38 | 11.3 | 19.3 | 0.00 | 0.00 | 0.00 | 57 | 1009.7 |
| 20260510054021 | 18 | 47 | 12.9 | 19.3 | 0.00 | 0.00 | 0.00 | 57 | 1009.5 |
| 20260510053520 | 18 | 48 | 12.9 | 19.3 | 0.00 | 0.00 | 0.00 | 57 | 1009.4 |
| 20260510053038 | 18 | 37 | 12.9 | 17.7 | 0.00 | 0.00 | 0.00 | 58 | 1009.4 |
| 20260510052520 | 18 | 38 | 12.9 | 17.7 | 0.00 | 0.00 | 0.00 | 58 | 1009.2 |
| 20260510052021 | 18 | 36 | 12.9 | 17.7 | 0.00 | 0.00 | 0.00 | 58 | 1009.1 |
| 20260510051538 | 18 | 38 | 9.7 | 14.5 | 0.00 | 0.00 | 0.00 | 58 | 1009.1 |
| 20260510051025 | 19 | 40 | 6.4 | 9.7 | 0.00 | 0.00 | 0.00 | 57 | 1009.1 |
| 20260510050523 | 19 | 40 | 4.8 | 9.7 | 0.00 | 0.00 | 0.00 | 57 | 1009.2 |
| 20260510050038 | 18 | 44 | 4.8 | 14.5 | 0.00 | 0.00 | 0.00 | 55 | 1009.0 |
| 20260510045521 | 18 | 60 | 8.0 | 14.5 | 0.00 | 0.00 | 0.00 | 58 | 1009.0 |
| 20260510045020 | 18 | 65 | 8.0 | 14.5 | 0.00 | 0.00 | 0.00 | 58 | 1009.1 |
| 20260510044537 | 18 | 54 | 6.4 | 12.9 | 0.00 | 0.00 | 0.00 | 58 | 1009.3 |
| 20260510044023 | 18 | 78 | 3.2 | 9.7 | 0.00 | 0.00 | 0.00 | 57 | 1009.2 |
| 20260510043522 | 19 | 144 | 3.2 | 9.7 | 0.00 | 0.00 | 0.00 | 57 | 1009.1 |
| 20260510043036 | 19 | 157 | 4.8 | 9.7 | 0.00 | 0.00 | 0.00 | 57 | 1009.2 |
| 20260510042522 | 19 | 180 | 4.8 | 9.7 | 0.00 | 0.00 | 0.00 | 54 | 1009.3 |
| 20260510042020 | 20 | 188 | 4.8 | 8.0 | 0.00 | 0.00 | 0.00 | 53 | 1009.6 |
| 20260510041535 | 20 | 193 | 0.0 | 4.8 | 0.00 | 0.00 | 0.00 | 54 | 1009.5 |
| 20260510041023 | 20 | 0 | 0.0 | 3.2 | 0.00 | 0.00 | 0.00 | 54 | 1009.4 |
| 20260510040521 | 20 | 0 | 0.0 | 3.2 | 0.00 | 0.00 | 0.00 | 55 | 1009.5 |
| 20260510040039 | 20 | 298 | 0.0 | 3.2 | 0.00 | 0.00 | 0.00 | 53 | 1009.4 |
| 20260510035522 | 21 | 0 | 0.0 | 3.2 | 0.00 | 0.00 | 0.00 | 50 | 1009.5 |
| 20260510035022 | 21 | 285 | 0.0 | 3.2 | 0.00 | 0.00 | 0.00 | 51 | 1009.5 |
| 20260510034537 | 21 | 0 | 0.0 | 4.8 | 0.00 | 0.00 | 0.00 | 49 | 1009.4 |
| 20260510034025 | 21 | 0 | 1.6 | 4.8 | 0.00 | 0.00 | 0.00 | 50 | 1009.5 |
| 20260510033520 | 21 | 286 | 0.0 | 4.8 | 0.00 | 0.00 | 0.00 | 49 | 1009.3 |
| 20260510033051 | 21 | 0 | 1.6 | 9.7 | 0.00 | 0.00 | 0.00 | 48 | 1009.3 |
| 20260510032523 | 21 | 110 | 3.2 | 12.9 | 0.00 | 0.00 | 0.00 | 47 | 1009.1 |
| 20260510032023 | 21 | 105 | 4.8 | 12.9 | 0.00 | 0.00 | 0.00 | 47 | 1009.1 |
| 20260510031539 | 21 | 121 | 9.7 | 12.9 | 0.00 | 0.00 | 0.00 | 48 | 1008.7 |
| 20260510031022 | 22 | 105 | 6.4 | 12.9 | 0.00 | 0.00 | 0.00 | 47 | 1008.7 |
| 20260510030521 | 22 | 110 | 8.0 | 12.9 | 0.00 | 0.00 | 0.00 | 46 | 1008.9 |
| 20260510030037 | 22 | 144 | 8.0 | 14.5 | 0.00 | 0.00 | 0.00 | 46 | 1009.1 |
| 20260510025525 | 22 | 144 | 8.0 | 14.5 | 0.00 | 0.00 | 0.00 | 46 | 1009.4 |
| 20260510025021 | 22 | 162 | 6.4 | 14.5 | 0.00 | 0.00 | 0.00 | 45 | 1009.4 |
| 20260510024536 | 22 | 168 | 8.0 | 14.5 | 0.00 | 0.00 | 0.00 | 45 | 1009.4 |
| 20260510024022 | 22 | 146 | 8.0 | 16.1 | 0.00 | 0.00 | 0.00 | 45 | 1009.5 |
| 20260510023521 | 22 | 238 | 8.0 | 16.1 | 0.00 | 0.00 | 0.00 | 45 | 1009.4 |
| 20260510023039 | 22 | 66 | 8.0 | 16.1 | 0.00 | 0.00 | 0.00 | 46 | 1009.4 |
| 20260510022522 | 22 | 344 | 6.4 | 14.5 | 0.00 | 0.00 | 0.00 | 45 | 1009.3 |
| 20260510022023 | 22 | 19 | 8.0 | 12.9 | 0.00 | 0.00 | 0.00 | 43 | 1009.5 |
| 20260510021625 | 22 | 343 | 4.8 | 9.7 | 0.00 | 0.00 | 0.00 | 43 | 1009.5 |
| 20260510021021 | 22 | 342 | 3.2 | 6.4 | 0.00 | 0.00 | 0.00 | 42 | 1009.4 |
| 20260510020522 | 22 | 317 | 1.6 | 6.4 | 0.00 | 0.00 | 0.00 | 42 | 1009.4 |
| 20260510020038 | 23 | 317 | 3.2 | 6.4 | 0.00 | 0.00 | 0.00 | 42 | 1009.2 |
| 20260510015521 | 23 | 317 | 3.2 | 6.4 | 0.00 | 0.00 | 0.00 | 41 | 1009.0 |
| 20260510015021 | 23 | 286 | 1.6 | 4.8 | 0.00 | 0.00 | 0.00 | 41 | 1008.7 |
| 20260510014548 | 23 | 174 | 0.0 | 4.8 | 0.00 | 0.00 | 0.00 | 41 | 1008.3 |
| 20260510014021 | 23 | 0 | 0.0 | 8.0 | 0.00 | 0.00 | 0.00 | 39 | 1008.2 |
| 20260510013524 | 23 | 0 | 3.2 | 12.9 | 0.00 | 0.00 | 0.00 | 39 | 1007.9 |
| 20260510013036 | 23 | 132 | 6.4 | 12.9 | 0.00 | 0.00 | 0.00 | 39 | 1007.7 |
| 20260510012522 | 23 | 177 | 6.4 | 12.9 | 0.00 | 0.00 | 0.00 | 39 | 1007.4 |
| 20260510012021 | 23 | 159 | 6.4 | 14.5 | 0.00 | 0.00 | 0.00 | 38 | 1007.2 |
| 20260510011538 | 24 | 171 | 6.4 | 14.5 | 0.00 | 0.00 | 0.00 | 38 | 1006.9 |
| 20260510011021 | 24 | 155 | 9.7 | 19.3 | 0.00 | 0.00 | 0.00 | 37 | 1006.8 |
| 20260510010522 | 24 | 146 | 8.0 | 20.9 | 0.00 | 0.00 | 0.00 | 37 | 1006.6 |
| 20260510010048 | 24 | 150 | 12.9 | 25.7 | 0.00 | 0.00 | 0.00 | 37 | 1006.5 |
| 20260510005523 | 24 | 159 | 14.5 | 25.7 | 0.00 | 0.00 | 0.00 | 37 | 1006.4 |
| 20260510005022 | 25 | 142 | 14.5 | 22.5 | 0.00 | 0.00 | 0.00 | 37 | 1006.3 |
| 20260510004538 | 25 | 185 | 12.9 | 20.9 | 0.00 | 0.00 | 0.00 | 36 | 1006.2 |
| 20260510004021 | 25 | 147 | 11.3 | 20.9 | 0.00 | 0.00 | 0.00 | 35 | 1006.0 |
| 20260510003521 | 26 | 164 | 9.7 | 19.3 | 0.00 | 0.00 | 0.00 | 34 | 1005.8 |
| 20260510003038 | 26 | 161 | 11.3 | 19.3 | 0.00 | 0.00 | 0.00 | 34 | 1005.8 |
| 20260510002522 | 26 | 150 | 11.3 | 19.3 | 0.00 | 0.00 | 0.00 | 33 | 1005.7 |
| 20260510002021 | 26 | 166 | 9.7 | 19.3 | 0.00 | 0.00 | 0.00 | 33 | 1005.7 |
| 20260510001537 | 27 | 148 | 11.3 | 24.1 | 0.00 | 0.00 | 0.00 | 32 | 1005.6 |
| 20260510001021 | 27 | 175 | 12.9 | 25.7 | 0.00 | 0.00 | 0.00 | 30 | 1005.7 |
| 20260510000521 | 27 | 157 | 12.9 | 25.7 | 0.00 | 0.00 | 0.00 | 31 | 1005.6 |
| 20260510000037 | 27 | 171 | 16.1 | 22.5 | 0.00 | 0.00 | 0.00 | 30 | 1005.6 |
| 20260509235521 | 27 | 149 | 11.3 | 22.5 | 0.00 | 0.00 | 0.00 | 30 | 1005.7 |
| 20260509235021 | 28 | 203 | 14.5 | 22.5 | 0.00 | 0.00 | 0.00 | 29 | 1005.7 |
| 20260509234539 | 28 | 130 | 12.9 | 19.3 | 0.00 | 0.00 | 0.00 | 28 | 1005.8 |
| 20260509234021 | 28 | 170 | 12.9 | 19.3 | 0.00 | 0.00 | 0.00 | 28 | 1005.8 |
| 20260509233520 | 28 | 167 | 12.9 | 20.9 | 0.00 | 0.00 | 0.00 | 28 | 1005.8 |
| 20260509233037 | 28 | 155 | 12.9 | 22.5 | 0.00 | 0.00 | 0.00 | 28 | 1005.9 |
| 20260509232524 | 28 | 190 | 12.9 | 22.5 | 0.00 | 0.00 | 0.00 | 28 | 1005.9 |
| 20260509232021 | 28 | 154 | 11.3 | 22.5 | 0.00 | 0.00 | 0.00 | 28 | 1005.9 |
| 20260509231537 | 29 | 154 | 12.9 | 24.1 | 0.00 | 0.00 | 0.00 | 27 | 1005.8 |
| 20260509231022 | 29 | 164 | 11.3 | 24.1 | 0.00 | 0.00 | 0.00 | 29 | 1005.9 |
| 20260509230522 | 29 | 189 | 12.9 | 24.1 | 0.00 | 0.00 | 0.00 | 27 | 1005.8 |
| 20260509230041 | 29 | 136 | 12.9 | 24.1 | 0.00 | 0.00 | 0.00 | 26 | 1005.8 |
| 20260509225522 | 29 | 159 | 16.1 | 22.5 | 0.00 | 0.00 | 0.00 | 25 | 1005.8 |
| 20260509225022 | 29 | 179 | 12.9 | 20.9 | 0.00 | 0.00 | 0.00 | 28 | 1005.8 |
| 20260509224536 | 29 | 151 | 11.3 | 25.7 | 0.00 | 0.00 | 0.00 | 27 | 1005.7 |
| 20260509224021 | 30 | 158 | 14.5 | 25.7 | 0.00 | 0.00 | 0.00 | 27 | 1005.8 |
| 20260509223523 | 30 | 153 | 12.9 | 25.7 | 0.00 | 0.00 | 0.00 | 26 | 1005.8 |
| 20260509223038 | 30 | 155 | 8.0 | 22.5 | 0.00 | 0.00 | 0.00 | 26 | 1005.8 |
| 20260509222520 | 30 | 164 | 11.3 | 25.7 | 0.00 | 0.00 | 0.00 | 24 | 1005.6 |
| 20260509222023 | 30 | 188 | 9.7 | 27.4 | 0.00 | 0.00 | 0.00 | 26 | 1005.6 |
| 20260509221541 | 30 | 163 | 12.9 | 27.4 | 0.00 | 0.00 | 0.00 | 26 | 1005.6 |
| 20260509221024 | 30 | 203 | 12.9 | 25.7 | 0.00 | 0.00 | 0.00 | 26 | 1005.5 |
| 20260509220525 | 30 | 165 | 12.9 | 25.7 | 0.00 | 0.00 | 0.00 | 25 | 1005.5 |
| 20260509220038 | 30 | 155 | 14.5 | 25.7 | 0.00 | 0.00 | 0.00 | 25 | 1005.4 |
| 20260509215523 | 30 | 235 | 6.4 | 29.0 | 0.00 | 0.00 | 0.00 | 22 | 1005.5 |
| 20260509215022 | 30 | 161 | 14.5 | 29.0 | 0.00 | 0.00 | 0.00 | 24 | 1005.5 |
| 20260509214539 | 30 | 184 | 8.0 | 22.5 | 0.00 | 0.00 | 0.00 | 27 | 1005.6 |
| 20260509214020 | 30 | 157 | 8.0 | 22.5 | 0.00 | 0.00 | 0.00 | 26 | 1005.6 |
| 20260509213522 | 30 | 151 | 6.4 | 20.9 | 0.00 | 0.00 | 0.00 | 25 | 1005.6 |
| 20260509213038 | 30 | 185 | 11.3 | 19.3 | 0.00 | 0.00 | 0.00 | 26 | 1005.7 |
| 20260509212524 | 30 | 150 | 8.0 | 19.3 | 0.00 | 0.00 | 0.00 | 26 | 1005.8 |
| 20260509212024 | 30 | 126 | 11.3 | 19.3 | 0.00 | 0.00 | 0.00 | 24 | 1005.8 |
| 20260509211539 | 30 | 158 | 8.0 | 14.5 | 0.00 | 0.00 | 0.00 | 25 | 1005.9 |
| 20260509211021 | 30 | 267 | 6.4 | 17.7 | 0.00 | 0.00 | 0.00 | 23 | 1005.8 |
| 20260509210521 | 30 | 135 | 4.8 | 19.3 | 0.00 | 0.00 | 0.00 | 25 | 1005.9 |
| 20260509210043 | 30 | 188 | 11.3 | 19.3 | 0.00 | 0.00 | 0.00 | 24 | 1006.1 |
| 20260509205520 | 30 | 161 | 4.8 | 16.1 | 0.00 | 0.00 | 0.00 | 24 | 1006.1 |
| 20260509205021 | 30 | 190 | 4.8 | 19.3 | 0.00 | 0.00 | 0.00 | 24 | 1006.1 |
| 20260509204541 | 30 | 161 | 8.0 | 19.3 | 0.00 | 0.00 | 0.00 | 24 | 1006.1 |
| 20260509204021 | 29 | 153 | 1.6 | 19.3 | 0.00 | 0.00 | 0.00 | 24 | 1006.2 |
| 20260509203520 | 30 | 155 | 9.7 | 29.0 | 0.00 | 0.00 | 0.00 | 26 | 1006.5 |
| 20260509203037 | 30 | 151 | 9.7 | 29.0 | 0.00 | 0.00 | 0.00 | 23 | 1006.5 |
| 20260509202520 | 30 | 157 | 17.7 | 22.5 | 0.00 | 0.00 | 0.00 | 24 | 1006.5 |
| 20260509202023 | 30 | 133 | 12.9 | 22.5 | 0.00 | 0.00 | 0.00 | 27 | 1006.5 |
| 20260509201540 | 30 | 186 | 12.9 | 22.5 | 0.00 | 0.00 | 0.00 | 30 | 1006.6 |
| 20260509201022 | 29 | 183 | 8.0 | 22.5 | 0.00 | 0.00 | 0.00 | 25 | 1006.6 |
| 20260509200521 | 30 | 139 | 8.0 | 22.5 | 0.00 | 0.00 | 0.00 | 24 | 1006.8 |
| 20260509200039 | 30 | 154 | 9.7 | 22.5 | 0.00 | 0.00 | 0.00 | 24 | 1006.8 |
| 20260509195524 | 31 | 171 | 9.7 | 22.5 | 0.00 | 0.00 | 0.00 | 23 | 1006.8 |
| 20260509195021 | 30 | 188 | 9.7 | 20.9 | 0.00 | 0.00 | 0.00 | 25 | 1006.9 |
| 20260509194551 | 30 | 218 | 6.4 | 22.5 | 0.00 | 0.00 | 0.00 | 21 | 1007.0 |
| 20260509194021 | 31 | 151 | 14.5 | 24.1 | 0.00 | 0.00 | 0.00 | 25 | 1007.0 |
| 20260509193522 | 30 | 190 | 14.5 | 24.1 | 0.00 | 0.00 | 0.00 | 25 | 1007.1 |
| 20260509193036 | 30 | 133 | 3.2 | 14.5 | 0.00 | 0.00 | 0.00 | 26 | 1007.2 |
| 20260509192522 | 30 | 53 | 3.2 | 16.1 | 0.00 | 0.00 | 0.00 | 22 | 1007.2 |
| 20260509192021 | 30 | 178 | 6.4 | 17.7 | 0.00 | 0.00 | 0.00 | 22 | 1007.3 |
| 20260509191535 | 30 | 220 | 9.7 | 17.7 | 0.00 | 0.00 | 0.00 | 21 | 1007.2 |
| 20260509191023 | 30 | 207 | 6.4 | 17.7 | 0.00 | 0.00 | 0.00 | 24 | 1007.4 |
| 20260509190520 | 30 | 257 | 8.0 | 17.7 | 0.00 | 0.00 | 0.00 | 24 | 1007.4 |
| 20260509190040 | 30 | 263 | 4.8 | 14.5 | 0.00 | 0.00 | 0.00 | 23 | 1007.4 |
| 20260509185521 | 30 | 313 | 6.4 | 14.5 | 0.00 | 0.00 | 0.00 | 24 | 1007.5 |
| 20260509185022 | 30 | 299 | 8.0 | 16.1 | 0.00 | 0.00 | 0.00 | 24 | 1007.5 |
| 20260509184538 | 29 | 296 | 8.0 | 19.3 | 0.00 | 0.00 | 0.00 | 26 | 1007.5 |
| 20260509184020 | 29 | 234 | 8.0 | 19.3 | 0.00 | 0.00 | 0.00 | 24 | 1007.6 |
| 20260509183522 | 29 | 236 | 6.4 | 14.5 | 0.00 | 0.00 | 0.00 | 23 | 1007.6 |
| 20260509183038 | 29 | 264 | 4.8 | 24.1 | 0.00 | 0.00 | 0.00 | 24 | 1007.7 |
| 20260509182521 | 29 | 261 | 9.7 | 24.1 | 0.00 | 0.00 | 0.00 | 25 | 1007.8 |
| 20260509182022 | 29 | 232 | 8.0 | 20.9 | 0.00 | 0.00 | 0.00 | 26 | 1007.9 |
| 20260509181538 | 29 | 197 | 12.9 | 25.7 | 0.00 | 0.00 | 0.00 | 25 | 1008.0 |
| 20260509181021 | 28 | 239 | 14.5 | 25.7 | 0.00 | 0.00 | 0.00 | 25 | 1008.0 |
| 20260509180522 | 28 | 230 | 4.8 | 22.5 | 0.00 | 0.00 | 0.00 | 27 | 1008.1 |
| 20260509180050 | 29 | 200 | 11.3 | 24.1 | 0.00 | 0.00 | 0.00 | 29 | 1008.1 |
| 20260509175522 | 29 | 182 | 12.9 | 24.1 | 0.00 | 0.00 | 0.00 | 28 | 1008.2 |
| 20260509175022 | 28 | 232 | 9.7 | 22.5 | 0.00 | 0.00 | 0.00 | 27 | 1008.3 |
| 20260509174540 | 28 | 224 | 8.0 | 19.3 | 0.00 | 0.00 | 0.00 | 24 | 1008.3 |
| 20260509174021 | 28 | 211 | 8.0 | 19.3 | 0.00 | 0.00 | 0.00 | 25 | 1008.3 |
| 20260509173520 | 28 | 186 | 11.3 | 20.9 | 0.00 | 0.00 | 0.00 | 27 | 1008.3 |
| 20260509173053 | 28 | 274 | 9.7 | 22.5 | 0.00 | 0.00 | 0.00 | 26 | 1008.3 |
| 20260509172525 | 28 | 258 | 11.3 | 27.4 | 0.00 | 0.00 | 0.00 | 27 | 1008.4 |
| 20260509172023 | 28 | 297 | 12.9 | 27.4 | 0.00 | 0.00 | 0.00 | 26 | 1008.5 |
| 20260509171541 | 28 | 256 | 14.5 | 25.7 | 0.00 | 0.00 | 0.00 | 28 | 1008.5 |
| 20260509171020 | 28 | 234 | 14.5 | 25.7 | 0.00 | 0.00 | 0.00 | 26 | 1008.5 |
| 20260509170520 | 27 | 254 | 12.9 | 24.1 | 0.00 | 0.00 | 0.00 | 26 | 1008.6 |
| 20260509170038 | 27 | 254 | 14.5 | 27.4 | 0.00 | 0.00 | 0.00 | 26 | 1008.7 |
| 20260509165521 | 27 | 276 | 16.1 | 27.4 | 0.00 | 0.00 | 0.00 | 27 | 1008.6 |
| 20260509165021 | 27 | 300 | 14.5 | 24.1 | 0.00 | 0.00 | 0.00 | 27 | 1008.6 |
| 20260509164537 | 27 | 256 | 9.7 | 25.7 | 0.00 | 0.00 | 0.00 | 29 | 1008.6 |
| 20260509164021 | 27 | 257 | 12.9 | 29.0 | 0.00 | 0.00 | 0.00 | 30 | 1008.7 |
| 20260509163525 | 27 | 273 | 16.1 | 29.0 | 0.00 | 0.00 | 0.00 | 28 | 1008.7 |
| 20260509163037 | 27 | 226 | 11.3 | 22.5 | 0.00 | 0.00 | 0.00 | 33 | 1008.8 |
| 20260509162521 | 27 | 247 | 8.0 | 22.5 | 0.00 | 0.00 | 0.00 | 33 | 1008.9 |
| 20260509162050 | 27 | 238 | 8.0 | 20.9 | 0.00 | 0.00 | 0.00 | 36 | 1008.9 |
| 20260509161552 | 26 | 249 | 11.3 | 20.9 | 0.00 | 0.00 | 0.00 | 35 | 1008.9 |
| 20260509161022 | 26 | 280 | 11.3 | 20.9 | 0.00 | 0.00 | 0.00 | 38 | 1008.9 |
| 20260509160523 | 26 | 219 | 11.3 | 17.7 | 0.00 | 0.00 | 0.00 | 38 | 1008.8 |
| 20260509160039 | 26 | 229 | 8.0 | 17.7 | 0.00 | 0.00 | 0.00 | 38 | 1008.8 |
| 20260509155522 | 26 | 208 | 11.3 | 17.7 | 0.00 | 0.00 | 0.00 | 39 | 1008.7 |